| time (UTC) | temp F | wind direction | speed MPH | gust MPH | rain 1hr in | rain 24hr in | rain mn in | humidity % | barometer mb |
| 20260504050718 | 44 | 60 | 3.0 | 5.0 | 0.00 | 0.00 | 0.00 | 77 | 1005.5 |
| 20260504044717 | 42 | 63 | 2.0 | 6.0 | 0.00 | 0.00 | 0.00 | 86 | 1005.8 |
| 20260504042717 | 42 | 57 | 3.0 | 4.0 | 0.00 | 0.00 | 0.00 | 78 | 1005.9 |
| 20260504040718 | 42 | 26 | 2.0 | 3.0 | 0.00 | 0.00 | 0.00 | 86 | 1006.1 |
| 20260504034718 | 41 | 358 | 4.0 | 6.0 | 0.00 | 0.00 | 0.00 | 87 | 1006.2 |
| 20260504032718 | 41 | 3 | 6.0 | 7.0 | 0.00 | 0.00 | 0.00 | 85 | 1006.3 |
| 20260504030718 | 41 | 348 | 6.0 | 7.0 | 0.00 | 0.00 | 0.00 | 88 | 1006.5 |
| 20260504024717 | 41 | 342 | 6.0 | 9.0 | 0.00 | 0.00 | 0.00 | 89 | 1006.6 |
| 20260504022718 | 42 | 19 | 7.0 | 9.0 | 0.00 | 0.00 | 0.00 | 80 | 1006.8 |
| 20260504020717 | 41 | 11 | 8.0 | 11.0 | 0.00 | 0.00 | 0.00 | 83 | 1006.9 |
| 20260504014718 | 41 | 350 | 9.0 | 10.0 | 0.00 | 0.00 | 0.00 | 82 | 1007.1 |
| 20260504012717 | 42 | 347 | 10.0 | 11.0 | 0.00 | 0.00 | 0.00 | 81 | 1007.3 |
| 20260504010718 | 42 | 343 | 10.0 | 12.0 | 0.00 | 0.00 | 0.00 | 80 | 1007.4 |
| 20260504004717 | 42 | 337 | 9.0 | 11.0 | 0.00 | 0.00 | 0.00 | 79 | 1007.5 |
| 20260504002719 | 42 | 334 | 9.0 | 10.0 | 0.00 | 0.00 | 0.00 | 81 | 1007.6 |
| 20260504000717 | 43 | 335 | 10.0 | 11.0 | 0.00 | 0.00 | 0.00 | 80 | 1007.6 |
| 20260503234717 | 43 | 333 | 10.0 | 11.0 | 0.00 | 0.00 | 0.00 | 80 | 1007.8 |
| 20260503232717 | 43 | 327 | 11.0 | 11.0 | 0.00 | 0.00 | 0.00 | 81 | 1007.8 |
| 20260503230717 | 43 | 329 | 10.0 | 12.0 | 0.00 | 0.00 | 0.00 | 80 | 1008.0 |
| 20260503224717 | 44 | 330 | 11.0 | 12.0 | 0.00 | 0.00 | 0.00 | 81 | 1008.0 |
| 20260503222716 | 43 | 318 | 12.0 | 13.0 | 0.00 | 0.00 | 0.00 | 82 | 1008.2 |
| 20260503220717 | 44 | 322 | 11.0 | 13.0 | 0.00 | 0.00 | 0.00 | 80 | 1008.1 |
| 20260503214716 | 43 | 318 | 10.0 | 12.0 | 0.00 | 0.00 | 0.00 | 84 | 1008.3 |
| 20260503212716 | 43 | 307 | 10.0 | 11.0 | 0.00 | 0.00 | 0.00 | 86 | 1008.5 |
| 20260503210717 | 43 | 308 | 11.0 | 11.0 | 0.00 | 0.00 | 0.00 | 85 | 1008.4 |
| 20260503204716 | 43 | 302 | 10.0 | 11.0 | 0.00 | 0.00 | 0.00 | 83 | 1008.4 |
| 20260503202716 | 44 | 307 | 10.0 | 11.0 | 0.00 | 0.00 | 0.00 | 82 | 1008.4 |
| 20260503200716 | 44 | 306 | 10.0 | 11.0 | 0.00 | 0.00 | 0.00 | 81 | 1008.4 |
| 20260503194716 | 44 | 299 | 8.0 | 10.0 | 0.00 | 0.00 | 0.00 | 83 | 1008.5 |
| 20260503192715 | 44 | 311 | 10.0 | 11.0 | 0.00 | 0.00 | 0.00 | 80 | 1008.4 |
| 20260503190715 | 45 | 309 | 11.0 | 13.0 | 0.00 | 0.00 | 0.00 | 80 | 1008.5 |
| 20260503184716 | 45 | 292 | 11.0 | 13.0 | 0.00 | 0.00 | 0.00 | 80 | 1008.6 |
| 20260503182716 | 45 | 301 | 11.0 | 13.0 | 0.00 | 0.00 | 0.00 | 80 | 1008.5 |
| 20260503180715 | 46 | 305 | 11.0 | 13.0 | 0.00 | 0.00 | 0.00 | 78 | 1008.3 |
| 20260503174716 | 46 | 309 | 12.0 | 14.0 | 0.00 | 0.00 | 0.00 | 77 | 1008.2 |
| 20260503172722 | 46 | 306 | 12.0 | 14.0 | 0.00 | 0.00 | 0.00 | 79 | 1008.3 |
| 20260503170715 | 47 | 300 | 10.0 | 13.0 | 0.00 | 0.00 | 0.00 | 75 | 1008.4 |
| 20260503150715 | 48 | 284 | 16.0 | 18.0 | 0.00 | 0.00 | 0.00 | 80 | 1008.8 |
| 20260503130714 | 46 | 258 | 13.0 | 14.0 | 0.00 | 0.00 | 0.00 | 89 | 1009.0 |
| 20260503110714 | 50 | 300 | 12.0 | 15.0 | 0.00 | 0.00 | 0.00 | 78 | 1009.0 |
| 20260503080714 | 46 | 282 | 6.0 | 7.0 | 0.00 | 0.00 | 0.00 | 90 | 1008.7 |
| 20260503072713 | 46 | 303 | 5.0 | 7.0 | 0.00 | 0.00 | 0.00 | 89 | 1008.4 |
| 20260503070713 | 48 | 331 | 5.0 | 8.0 | 0.00 | 0.00 | 0.00 | 80 | 1008.0 |